Вернуться в каталог

NOAA 12 DEB

АктивенSSO
NORAD 37831·DEBRIS·🇺🇸 United States

Запущен May 14, 1991 с Vandenberg Space Force Base

Loading…

Ближайшие Пролёты (ближайшие 24 часа)

TLE

СвежийSource: Space-Track

Эпоха: Sep 14, 2026, 03:44 UTC

1 37831U 91032D   26257.15581464  .00015505  00000-0  15878-2 0  9990
2 37831  98.1214 321.2169 0001574  82.5848 305.7411 14.90587378788854

Отслеживайте NOAA 12 DEB в реальном времени с AllMySat

Download on the App Store